RYR4HW LEMH-LFML

Flight info

Callsign RYR4HW
Flight time N/A
Altitude 30000
Route MEROS DCT LAPIT DCT CHELY DCT LUMAS UM976 SOSUR
Aircraft B738/M-SDE2E3FGHIRWXY/LB1

Departure

Time 2026-04-24 17:07
Airport Menorca Airport (LEMH)

Arrival

Time N/A
Airport Marseille Provence Airport (LFML)
Time Latitude Longitude Altitude Speed Heading
2026-04-24 16:55 39.86317 4.22385 285 ft 0 kts 99°
2026-04-24 17:01 39.86321 4.22354 288 ft 2 kts 99°
2026-04-24 17:01 39.86324 4.22333 289 ft 2 kts 99°
2026-04-24 17:02 39.86335 4.22294 293 ft 2 kts 156°
2026-04-24 17:02 39.86344 4.22293 296 ft 0 kts 193°
2026-04-24 17:04 39.86313 4.22285 292 ft 11 kts 190°
2026-04-24 17:04 39.86191 4.22148 291 ft 16 kts 272°
2026-04-24 17:04 39.86096 4.22070 294 ft 22 kts 188°
2026-04-24 17:05 39.85918 4.22037 295 ft 30 kts 188°
2026-04-24 17:05 39.85682 4.21991 289 ft 39 kts 189°
2026-04-24 17:05 39.85139 4.21834 281 ft 25 kts 247°
2026-04-24 17:06 39.85172 4.21648 285 ft 13 kts 345°
2026-04-24 17:06 39.85721 4.21759 298 ft 106 kts
2026-04-24 17:06 39.86711 4.21942 378 ft 175 kts
2026-04-24 17:07 39.87573 4.22097 828 ft 195 kts
2026-04-24 17:07 39.89426 4.22477 2150 ft 200 kts
2026-04-24 17:07 39.92084 4.23072 4378 ft 198 kts
2026-04-24 17:08 39.95207 4.23751 5108 ft 259 kts
2026-04-24 17:08 39.97031 4.24142 5830 ft 270 kts
2026-04-24 17:08 39.98898 4.24541 6730 ft 274 kts
2026-04-24 17:09 40.02704 4.25373 8555 ft 281 kts
2026-04-24 17:09 40.06603 4.26298 10287 ft 289 kts
2026-04-24 17:10 40.08656 4.26788 10653 ft 313 kts
2026-04-24 17:10 40.15511 4.28421 12617 ft 342 kts
2026-04-24 17:11 40.22554 4.30098 15358 ft 340 kts
2026-04-24 17:12 40.34222 4.32880 18008 ft 359 kts